Bowling Green, Kentucky, United States (42101)
Lat: 36.99N, Lon: 86.44W
Wx Zone: KYZ071
Local Info
Past Weather Observations for Thursday, August 18, 2016

NOTE: This archive is for the closest National Weather Service station to Bowling Green. Information may differ from the station used for current weather conditions.

Click here for Long-term Archive

Time Weather Temperature Dewpoint Humidity Pressure Winds Precip Visibility
23:55
Overcast
73°F / 23°C 73°F / 23°C 100% 30.06 in
(1018 mb)
Calm - 10SM
23:35
Mostly Cloudy
73°F / 23°C 73°F / 23°C 100% 30.06 in
(1018 mb)
Calm - 10SM
23:15
Mostly Cloudy
73°F / 23°C 73°F / 23°C 100% 30.06 in
(1018 mb)
Calm - 10SM
22:55
Overcast
73°F / 23°C 73°F / 23°C 100% 30.09 in
(1019 mb)
Calm - 10SM
22:35
Overcast
73°F / 23°C 73°F / 23°C 100% 30.09 in
(1019 mb)
Calm - 10SM
22:15
Overcast
73°F / 23°C 73°F / 23°C 100% 30.09 in
(1019 mb)
Calm - 10SM
21:55
Mostly Cloudy
73°F / 23°C 73°F / 23°C 100% 30.09 in
(1019 mb)
Calm - 10SM
21:35
Mostly Cloudy
73°F / 23°C 73°F / 23°C 100% 30.09 in
(1019 mb)
S 4.6 mph
(S 7 kph)
- 10SM
21:15
Overcast
73°F / 23°C 73°F / 23°C 100% 30.09 in
(1019 mb)
Calm - 10SM
20:55
Overcast
73°F / 23°C 73°F / 23°C 100% 30.09 in
(1019 mb)
S 4.6 mph
(S 7 kph)
- 10SM
20:35
Mostly Cloudy
73°F / 23°C 73°F / 23°C 100% 30.06 in
(1018 mb)
Calm - 10SM
20:15
Partly Cloudy
73°F / 23°C 73°F / 23°C 100% 30.06 in
(1018 mb)
Calm - 10SM
19:55
Partly Cloudy
73°F / 23°C 73°F / 23°C 100% 30.06 in
(1018 mb)
Calm - 10SM
19:35
Mostly Cloudy
73°F / 23°C 73°F / 23°C 100% 30.06 in
(1018 mb)
Calm - 10SM
19:15
Mostly Cloudy
73°F / 23°C 73°F / 23°C 100% 30.06 in
(1018 mb)
Calm - 10SM
18:55
Partly Cloudy
73°F / 23°C 73°F / 23°C 100% 30.06 in
(1018 mb)
Calm - 10SM
18:35
Partly Cloudy
75°F / 24°C 75°F / 24°C 100% 30.06 in
(1018 mb)
Calm - 10SM
18:15
Partly Cloudy
75°F / 24°C 72°F / 22°C 89% 30.06 in
(1018 mb)
Calm - 10SM
17:35
Clear
77°F / 25°C 72°F / 22°C 83% 30.06 in
(1018 mb)
S 3.5 mph
(S 6 kph)
- 10SM
17:15
Partly Cloudy
77°F / 25°C 70°F / 21°C 79% 30.06 in
(1018 mb)
Calm - 10SM
16:55
Clear
77°F / 25°C 70°F / 21°C 79% 30.06 in
(1018 mb)
SW 3.5 mph
(SW 6 kph)
- 10SM
16:35
Clear
77°F / 25°C 70°F / 21°C 79% 30.06 in
(1018 mb)
Calm - 10SM
16:15
Clear
79°F / 26°C 70°F / 21°C 74% 30.06 in
(1018 mb)
Calm - 10SM
15:55
Partly Cloudy
77°F / 25°C 70°F / 21°C 79% 30.09 in
(1019 mb)
Calm - 10SM
15:35
Partly Cloudy
77°F / 25°C 70°F / 21°C 79% 30.09 in
(1019 mb)
SSW 5.8 mph
(SSW 9 kph)
- 10SM
15:15
Partly Cloudy
77°F / 25°C 70°F / 21°C 79% 30.09 in
(1019 mb)
SW 3.5 mph
(SW 6 kph)
- 10SM
14:55
Partly Cloudy
79°F / 26°C 72°F / 22°C 79% 30.09 in
(1019 mb)
SW 5.8 mph
(SW 9 kph)
- 10SM
14:35
Partly Cloudy
77°F / 25°C 72°F / 22°C 83% 30.09 in
(1019 mb)
SSW 4.6 mph
(SSW 7 kph)
- 10SM
14:15
Clear
77°F / 25°C 73°F / 23°C 89% 30.09 in
(1019 mb)
SW 4.6 mph
(SW 7 kph)
- 10SM
13:55
Clear
75°F / 24°C 72°F / 22°C 89% 30.12 in
(1020 mb)
SW 5.8 mph
(SW 9 kph)
- 10SM
13:35
Partly Cloudy
75°F / 24°C 73°F / 23°C 94% 30.12 in
(1020 mb)
SW 3.5 mph
(SW 6 kph)
- 10SM
13:15
Partly Cloudy
75°F / 24°C 75°F / 24°C 100% 30.12 in
(1020 mb)
SSE 4.6 mph
(SSE 7 kph)
- 10SM
12:55
Overcast
Light Rain
73°F / 23°C 73°F / 23°C 100% 30.12 in
(1020 mb)
SW 5.8 mph
(SW 9 kph)
0.01 in
(0.25 mm)
10SM
12:35
Overcast
Light Rain
73°F / 23°C 73°F / 23°C 100% 30.15 in
(1021 mb)
SSW 4.6 mph
(SSW 7 kph)
0.01 in
(0.25 mm)
10SM
12:15
Mostly Cloudy
Light Rain
73°F / 23°C 73°F / 23°C 100% 30.15 in
(1021 mb)
SSW 4.6 mph
(SSW 7 kph)
0.01 in
(0.25 mm)
10SM
11:55
Overcast
Light Rain
73°F / 23°C 73°F / 23°C 100% 30.15 in
(1021 mb)
SSW 8.1 mph
(SSW 13 kph)
0.17 in
(4.32 mm)
7SM
11:35
Overcast
Rain
73°F / 23°C 73°F / 23°C 100% 30.15 in
(1021 mb)
SSW 3.5 mph
(SSW 6 kph)
0.13 in
(3.30 mm)
5SM
11:15
Overcast
Rain
73°F / 23°C 73°F / 23°C 100% 30.15 in
(1021 mb)
SW 8.1 mph
(SW 13 kph)
0.06 in
(1.52 mm)
4SM
10:55
Overcast
Rain
73°F / 23°C 73°F / 23°C 100% 30.15 in
(1021 mb)
SW 3.5 mph
(SW 6 kph)
0.14 in
(3.56 mm)
4SM
10:35
Overcast
Rain
73°F / 23°C 73°F / 23°C 100% 30.15 in
(1021 mb)
SW 3.5 mph
(SW 6 kph)
0.08 in
(2.03 mm)
4SM
10:15
Overcast
Rain
73°F / 23°C 73°F / 23°C 100% 30.15 in
(1021 mb)
SW 4.6 mph
(SW 7 kph)
0.03 in
(0.76 mm)
5SM
09:55
Overcast
Rain
73°F / 23°C 73°F / 23°C 100% 30.15 in
(1021 mb)
S 3.5 mph
(S 6 kph)
0.09 in
(2.29 mm)
10SM
09:35
Overcast
Light Rain
72°F / 22°C 72°F / 22°C 100% 30.15 in
(1021 mb)
Calm 0.09 in
(2.29 mm)
5SM
09:15
Overcast
Light Rain
73°F / 23°C 73°F / 23°C 100% 30.15 in
(1021 mb)
SSW 4.6 mph
(SSW 7 kph)
0.06 in
(1.52 mm)
7SM
08:55
Overcast
Rain
75°F / 24°C 75°F / 24°C 100% 30.15 in
(1021 mb)
SW 11.5 mph
(SW 19 kph)
- 10SM
08:35
Mostly Cloudy
77°F / 25°C 73°F / 23°C 89% 30.15 in
(1021 mb)
SSW 4.6 mph
(SSW 7 kph)
- 10SM
08:15
Overcast
Light Rain
75°F / 24°C 75°F / 24°C 100% 30.15 in
(1021 mb)
Calm - 7SM
07:55
Mostly Cloudy
75°F / 24°C 75°F / 24°C 100% 30.15 in
(1021 mb)
W 3.5 mph
(W 6 kph)
- 10SM
07:35
Overcast
75°F / 24°C 73°F / 23°C 94% 30.15 in
(1021 mb)
Calm - 10SM
07:15
Mostly Cloudy
75°F / 24°C 75°F / 24°C 100% 30.15 in
(1021 mb)
Calm - 10SM
06:55
Overcast
73°F / 23°C 73°F / 23°C 100% 30.15 in
(1021 mb)
Calm - 10SM
06:35
Overcast
73°F / 23°C 73°F / 23°C 100% 30.15 in
(1021 mb)
Calm - 10SM
06:15
Overcast
Thunder Storms
73°F / 23°C 73°F / 23°C 100% 30.15 in
(1021 mb)
Calm - 10SM
05:55
Overcast
73°F / 23°C 73°F / 23°C 100% 30.15 in
(1021 mb)
Calm 0.01 in
(0.25 mm)
7SM
05:35
Overcast
Fog And Mist
73°F / 23°C 73°F / 23°C 100% 30.15 in
(1021 mb)
Calm 0.01 in
(0.25 mm)
5SM
05:15
Overcast
Fog And Mist
73°F / 23°C 73°F / 23°C 100% 30.15 in
(1021 mb)
Calm 0.01 in
(0.25 mm)
5SM
04:55
Overcast
Fog And Mist
73°F / 23°C 73°F / 23°C 100% 30.15 in
(1021 mb)
Calm - 5SM
04:35
Overcast
Fog And Mist
73°F / 23°C 73°F / 23°C 100% 30.12 in
(1020 mb)
Calm - 4SM
04:15
Overcast
Light Rain
73°F / 23°C 73°F / 23°C 100% 30.12 in
(1020 mb)
Calm - 4SM
03:55
Mostly Cloudy
Fog And Mist
73°F / 23°C 73°F / 23°C 100% 30.12 in
(1020 mb)
Calm - 5SM
03:35
Partly Cloudy
Fog And Mist
73°F / 23°C 73°F / 23°C 100% 30.12 in
(1020 mb)
Calm - 5SM
03:15
Partly Cloudy
73°F / 23°C 73°F / 23°C 100% 30.12 in
(1020 mb)
Calm - 7SM
02:55
Mostly Cloudy
73°F / 23°C 73°F / 23°C 100% 30.12 in
(1020 mb)
Calm - 7SM
02:35
Mostly Cloudy
Fog And Mist
73°F / 23°C 73°F / 23°C 100% 30.12 in
(1020 mb)
Calm - 5SM
02:15
Partly Cloudy
73°F / 23°C 73°F / 23°C 100% 30.15 in
(1021 mb)
Calm - 7SM
01:55
Partly Cloudy
Fog And Mist
73°F / 23°C 73°F / 23°C 100% 30.15 in
(1021 mb)
Calm 0.01 in
(0.25 mm)
5SM
01:35
Partly Cloudy
Drizzle
73°F / 23°C 73°F / 23°C 100% 30.15 in
(1021 mb)
Calm 0.01 in
(0.25 mm)
5SM
01:15
Mostly Cloudy
Light Rain
73°F / 23°C 73°F / 23°C 100% 30.15 in
(1021 mb)
Calm 0.01 in
(0.25 mm)
5SM
00:55
Partly Cloudy
Rain
73°F / 23°C 73°F / 23°C 100% 30.15 in
(1021 mb)
Calm - 7SM
00:35
Mostly Cloudy
Light Rain
73°F / 23°C 73°F / 23°C 100% 30.18 in
(1022 mb)
Calm - 10SM
00:15
Mostly Cloudy
73°F / 23°C 73°F / 23°C 100% 30.18 in
(1022 mb)
Calm - 10SM
Time Weather Temperature Dewpoint Humidity Pressure Winds Precip Visibility


Weather for websites

WeatherForYou.com, LLC is not responsible for any damages or problems caused by this service. Current weather conditions are obtained from the closest station including government and personal stations which may have varying degrees of accuracy. Weather forecasts are derived from the NOAA NDFD. Like all things, this site belongs to Jesus Christ... He just trusts us to maintain it. If you have any questions or comments email webmaster@weatherforyou.com

Copyright © 2016, WeatherForYou.com LLC. All rights reserved.